Flag for Netherlands Weather past 2 weeks in Groningen, Netherlands

Now
39 °F

Broken clouds.


Feels Like: 34 °F
Forecast: 34 / 46 °F
Wind: 7 mph from Northwest

Location: Groningen Eelde Airport

Current Time: Feb 27, 2015 at 8:51:27 AM

Latest Report: Feb 27, 2015 at 7:55 AM


Visibility: N/A

Pressure: 29.89 "Hg

Humidity: 93%

Dew point: 37 °F

Location of GroningenLocation

Historic Weather in Groningen — Graph

°F

Groningen temperature yesterday

Maximum temperature yesterday: 48 °F (at 2:55 PM)
Minimum temperature yesterday: 39 °F (at 12:25 AM)
Average temperature yesterday: 43 °F

Past Weeks' High & Low Weather Summary

 TemperatureHumidityPressure
High50 °F (Feb 14, 2:55 PM)100% (Feb 12, 9:25 AM)30.69 "Hg (Feb 12, 9:25 AM)
Low27 °F (Feb 17, 1:55 AM)58% (Feb 23, 2:55 PM)29.21 "Hg (Feb 23, 4:55 AM)
Average38 °F88%29.91 "Hg
* Reported Feb 12 7:25 AM — Feb 27 7:25 AM, Groningen, Weather by CustomWeather, © 2015

Note: Actual official high and low records may vary slightly from our data, if they occured in-between our weather recording intervals... More about our weather records

Advertising

Groningen weather history for previous 24 hours

 ConditionsComfort  
Time TempWeatherWind HumidityBarometerVisibility
7:25 AM
Fri, Feb 27
37 °FClear.8 mph100%29.89 "HgN/A
6:55 AM39 °FClear.9 mph93%29.86 "HgN/A
6:25 AM39 °FClear.10 mph93%29.86 "HgN/A
5:55 AM39 °FClear.9 mph93%29.83 "HgN/A
5:25 AM41 °FClear.9 mph93%29.83 "HgN/A
4:25 AM41 °FPassing clouds.6 mph93%29.80 "HgN/A
3:55 AM41 °FPassing clouds.8 mph87%29.80 "HgN/A
3:25 AM41 °FPassing clouds.7 mph87%29.80 "HgN/A
2:55 AM41 °FPassing clouds.8 mph87%29.80 "HgN/A
2:25 AM41 °FDrizzle. Overcast.14 mph87%29.80 "HgN/A
1:55 AM43 °FPassing clouds.10 mph93%29.80 "Hg6 mi
1:25 AM43 °FLight rain. Partly cloudy.9 mph93%29.80 "Hg6 mi
12:55 AM43 °FLight rain. Partly cloudy.9 mph93%29.80 "HgN/A
12:25 AM43 °FPassing clouds.13 mph93%29.77 "Hg4 mi
11:55 PM
Thu, Feb 26
43 °FLight rain. Partly cloudy.10 mph100%29.77 "HgN/A
11:25 PM45 °FLight rain. Partly cloudy.7 mph100%29.77 "Hg2 mi
10:55 PM45 °FPassing clouds.8 mph100%29.77 "Hg4 mi
9:55 PM45 °FPassing clouds.9 mph93%29.77 "Hg4 mi
9:25 PM45 °FLight rain. Partly cloudy.12 mph93%29.77 "Hg3 mi
8:55 PM45 °FPassing clouds.13 mph93%29.77 "Hg2 mi
8:25 PM45 °FDrizzle. Mostly cloudy.14 mph93%29.77 "Hg2 mi
7:55 PM45 °FFog.15 mph100%29.77 "Hg2 mi
7:25 PM45 °FDrizzle. Mostly cloudy.14 mph100%29.80 "Hg3 mi
6:55 PM45 °FPassing clouds.13 mph100%29.80 "Hg3 mi
6:25 PM45 °FPartly cloudy.14 mph100%29.80 "Hg3 mi
5:55 PM46 °FDrizzle. Broken clouds.17 mph87%29.80 "Hg3 mi
5:25 PM46 °FOvercast.16 mph87%29.80 "HgN/A
4:55 PM48 °FLight rain. More clouds than sun.15 mph82%29.80 "HgN/A
4:25 PM48 °FDrizzle. More clouds than sun.15 mph82%29.83 "HgN/A
3:55 PM48 °FOvercast.16 mph76%29.83 "HgN/A
3:25 PM48 °FOvercast.16 mph76%29.86 "HgN/A
2:55 PM48 °FClear.15 mph76%29.86 "HgN/A
2:25 PM46 °FPassing clouds.17 mph82%29.89 "HgN/A
1:55 PM46 °FPassing clouds.18 mph82%29.89 "HgN/A
1:25 PM46 °FPassing clouds.17 mph76%29.92 "HgN/A
12:55 PM46 °FScattered clouds.14 mph82%29.95 "HgN/A
12:25 PM45 °FBroken clouds.14 mph81%29.95 "HgN/A
11:55 AM43 °FPartly sunny.16 mph87%29.98 "Hg5 mi
11:25 AM41 °FLow clouds.14 mph87%29.98 "Hg4 mi
10:55 AM41 °FMostly cloudy.16 mph87%30.01 "Hg5 mi
10:25 AM41 °FCloudy.14 mph87%30.01 "Hg4 mi
9:55 AM41 °FFog.15 mph87%30.01 "Hg3 mi
9:25 AM39 °FFog.13 mph93%30.01 "Hg3 mi
8:55 AM39 °FFog.13 mph93%30.01 "Hg3 mi
8:25 AM39 °FFog.14 mph93%30.01 "Hg3 mi
Weather by CustomWeather, © 2015

See weather overviewHow to use our weather pages